Regional Weather Roundup
Issued by NWS

Home | Current Version | Previous Version | Graphics & Text | Print | Product List | Glossary On
Versions: 1 2 3 4 5 6 7 8 9 10 11 12 13 14 15 16 17 18 19 20 21 22 23 24 25 26 27 28 29 30 31 32 33 34 35 36 37 38 39 40 41 42 43 44 45 46 47 48 49 50
000
ASUS43 KMPX 210401
RWRMN
WEATHER ROUNDUP FOR MINNESOTA
NATIONAL WEATHER SERVICE TWIN CITIES/CHANHASSEN MN
1000 PM CST SAT JAN 20 2018


NOTE: "FAIR" INDICATES FEW OR NO CLOUDS BELOW 12,000 FEET WITH NO
SIGNIFICANT WEATHER AND/OR OBSTRUCTIONS TO VISIBILITY. N/A MEANS
CURRENT SKY AND/OR WEATHER CONDITIONS ARE NOT AVAILABLE.

MNZ060>063-068>070-210500-
   Twin Cities Metro

CITY           SKY/WX    TMP DP  RH WIND       PRES   REMARKS
TWIN CITIES    MOCLDY    35  32  88 CALM      29.93S
ST PAUL        FAIR      33  31  92 CALM      29.94S
CRYSTAL        CLOUDY    34  29  82 CALM      29.92S
BLAINE         MOCLDY    37  32  81 CALM      29.93R
LAKEVILLE      FAIR      27  27 100 CALM      29.93R
EDEN PRAIRIE   FAIR      35  31  85 CALM      29.92R
SOUTH ST PAUL  FAIR      33  32  96 CALM      29.93R
LAKE ELMO      FAIR      32  32 100 CALM      29.93S
$$
MNZ001>005-007-008-013>017-022>024-027-028-210500-
   Northwest Minnesota

CITY           SKY/WX    TMP DP  RH WIND       PRES   REMARKS
BEMIDJI        FAIR      25  24  97 W5        29.89R WCI  19
HALLOCK        FAIR      19  18  93 CALM      29.88S
ROSEAU         FAIR      25  21  86 SW5       29.86S WCI  19
WARROAD        FAIR      27  21  80 W7        29.85F WCI  19
CROOKSTON      FAIR      21  19  93 SW9       29.92R WCI  11
FOSSTON        FAIR      21  19  93 S7        29.91R WCI  13
DETROIT LAKES  FOG       25  23  93 CALM      29.92S VSB 1
MOORHEAD       FAIR      30  27  86 CALM      29.94R
PARK RAPIDS    HAZE      15  10  80 W3        29.90R VSB 1/4
MAHNOMEN       FAIR      22  20  95 SW9       29.90R WCI  11
$$
MNZ006-009>011-018-025>026-210500-
   North Central Minnesota

CITY           SKY/WX    TMP DP  RH WIND       PRES   REMARKS
BAUDETTE       FAIR      22  20  92 CALM      29.85R
FLAG ISLAND    CLOUDY    21  19  93 CALM      29.85R
INTL FALLS     FAIR      22  19  89 SW5       29.85R WCI  16
WASKISH        FAIR      27  25  93 SW5       29.87S WCI  21
BIG FORK       FAIR      21  19  93 CALM      29.87R FOG
LONGVILLE      FAIR      21  19  93 CALM      29.90R
GRAND RAPIDS   FAIR      24  22  91 NW3       29.90R
CRANE LAKE     FAIR      18  16  93 CALM      29.89R
ORR            FAIR      27  23  86 CALM      29.84S
COOK           MOCLDY    19  18  93 CALM      29.87S
WALKER         FAIR      27  24  89 W5        29.88S WCI  21
$$
MNZ012-019>021-037-210500-
   Northeast Minnesota

CITY           SKY/WX    TMP DP  RH WIND       PRES   REMARKS
DULUTH         FAIR      30  26  85 NW7       29.87R WCI  23
HIBBING        FAIR      18  18 100 CALM      29.87S FOG
EVELETH        FOG       17  14  86 CALM      29.88S VSB 3/4
DULUTH HARBOR  FAIR      32  28  86 SW8       29.90S WCI  25
TWO HARBORS    FAIR      37  28  70 NW7       29.85S
SILVER BAY     FAIR      27  27 100 CALM      29.85S
GRAND MARAIS     N/A     30  29  96 NW3       29.90R
G MARAIS ARPRT FAIR      19  16  86 CALM      29.85F
$$
MNZ029>031-032-039>041-046>048-054>057-064-210500-
   West Central Minnesota

CITY           SKY/WX    TMP DP  RH WIND       PRES   REMARKS
FERGUS FALLS   FAIR      30  28  93 CALM      29.92S
WHEATON        CLOUDY    34  28  80 W3        29.96S
MORRIS         CLOUDY    36  30  80 SW3       29.93S
ALEXANDRIA     MOCLDY    31  29  92 SW5       29.93R WCI  26
ELBOW LAKE     FAIR      30  29  94 SE3       29.93F
WADENA         FAIR      28  27  93 W3        29.92R
GLENWOOD       FAIR      34  30  86 W6        29.93F WCI  29
APPLETON       CLOUDY    37  28  70 CALM      29.94S
BENSON         CLOUDY    34  30  86 SW3       29.96S
ORTONVILLE     CLOUDY    37  30  75 CALM      29.94S
MADISON        CLOUDY    37  30  75 CALM      29.95R
WILLMAR        FAIR      34  30  86 CALM      29.96S
$$
MNZ033>034-036-042>043-049>051-058-059-210500-
   Central Minnesota

CITY           SKY/WX    TMP DP  RH WIND       PRES   REMARKS
ST CLOUD       MOCLDY    32  29  88 CALM      29.94R
SAUK CENTRE      N/A     33  30  89 W3        29.93S
PAYNESVILLE    CLOUDY    34  32  93 CALM      29.94S
AITKIN         FAIR      27  23  86 CALM      29.89R
PINE RIVER     FAIR      27  25  93 CALM      29.95R
BRAINERD       FAIR      26  23  88 CALM      29.92R
STAPLES        FAIR      27  27 100 CALM      29.92R
LONG PRAIRIE   FAIR      32  30  93 S3        29.94R
LITTLE FALLS   MOCLDY    32  27  80 NW3       29.94R
LITCHFIELD     CLOUDY    36  32  87 W3        29.95R
BUFFALO        CLOUDY    35  30  82 W5        29.95R WCI  31
MAPLE LAKE     CLOUDY    37  32  84 MISG      29.95R
HUTCHINSON     CLOUDY    36  32  87 NW6       29.95R
$$
MNZ037-044-045-052-053-210500-
   East Central Minnesota

CITY           SKY/WX    TMP DP  RH WIND       PRES   REMARKS
PRINCETON      CLOUDY    36  30  80 CALM      29.94R
MORA           FAIR      30  27  86 S5        29.93R WCI  25
CAMBRIDGE        N/A     34  28  80 SW3       29.94R
RUSH CITY      FAIR      29  27  91 SW3       29.93R
MOOSE LAKE     FAIR      28  25  86 CALM      29.88S
HINCKLEY       FAIR      27  27 100 CALM      29.91R
CLOQUET        FAIR      30  25  80 CALM      29.88R
MCGREGOR       FAIR      32  28  86 CALM      29.90R
$$
MNZ071>073-080-081-089-090-097-098-210500-
   Southwest Minnesota

CITY           SKY/WX    TMP DP  RH WIND       PRES   REMARKS
MONTEVIDEO     CLOUDY    37  28  70 W3        29.95R
GRANITE FALLS  CLOUDY    36  32  84 W3        29.96R
CANBY          CLOUDY    37  29  73 CALM      29.95S
MARSHALL       CLOUDY    34  28  79 NW7       29.94S WCI  28
REDWOOD FALLS  CLOUDY    37  30  75 N5        29.93R
OLIVIA         CLOUDY    36  32  87 CALM      29.94R
PIPESTONE      CLOUDY    34  27  75 CALM      29.92R
WINDOM         CLOUDY    34  19  55 CALM      29.93R
WORTHINGTON    CLOUDY    35  30  82 N7        29.93R WCI  29
JACKSON        CLOUDY    32  28  86 CALM      29.93R
TRACY          CLOUDY    34  29  83 CALM      29.94R
SLAYTON        CLOUDY    33  28  82 CALM      29.94R
$$
MNZ065>067-074>077-082>085-091>093-210500-
   South Central Minnesota

CITY           SKY/WX    TMP DP  RH WIND       PRES   REMARKS
MANKATO        FAIR      31  29  92 CALM      29.93R
NEW ULM        CLOUDY    34  28  80 N5        29.93S WCI  30
ST JAMES       CLOUDY    30  28  93 CALM      29.94S
FAIRMONT       CLOUDY    31  29  92 NW5       29.93R WCI  26
FARIBAULT        N/A     28  27  93 CALM      29.93S FOG
OWATONNA       FAIR      28  28 100 CALM      29.93R
WASECA         FAIR      32  30  93 CALM      29.94R
ALBERT LEA     FAIR      30  28  93 CALM      29.92R
$$
MNZ078>079-086>088-094>096-210500-
   Southeast Minnesota

CITY           SKY/WX    TMP DP  RH WIND       PRES   REMARKS
ROCHESTER      FAIR      34  31  88 SE3       29.92R
RED WING       FAIR      30  27  86 CALM      29.93R FOG
STANTON        FAIR      30  28  93 SW3       29.92S
DODGE CENTER   FAIR      30  30 100 CALM      29.92R FOG
WINONA         FAIR      28  28 100 CALM      29.93S FOG
PRESTON        FAIR      34  30  86 CALM      29.92S
$$
ABBREVIATIONS USED IN REMARKS
   TC - TEMPERATURES IN CELSIUS
  WCI - WIND CHILL INDEX
   HX - HEAT INDEX
  VSB - VISIBILITY
$$



USA.gov is the U.S. government's official web portal to all federal, state and local government web resources and services.